Hourly Data Report for December 08, 2017

VICTORIA UNIVERSITY CS
BRITISH COLUMBIA

48°27'25.200" N
123°18'16.600" W
60.10 m
1018598
71783
WYJ

Download Data

Hourly Data (December 2017)
Hourly Data Report for December 8, 2017
TIME
LST
Temp Definition
°C
Dew Point Definition
°C
Rel Hum Definition
%
Precip. Amount Definition
mm

Wind Dir Definition
10's deg

Wind Spd Definition
km/h
Visibility Definition
km
Stn Press Definition
kPa
Hmdx Definition


Wind Chill Definition


Weather Definition


00:00 3.7 3.2 97 0.0 36 7   102.65     LegendNANA
01:00 3.3 2.8 96 0.0 35 5   102.65     LegendNANA
02:00 3.1 2.6 97 0.0 34 7   102.67     LegendNANA
03:00 3.4 3.1 98 0.0 1 11   102.68     LegendNANA
04:00 3.1 2.8 98 0.0 34 9   102.68     LegendNANA
05:00 2.7 2.4 98 0.0 35 7   102.65     LegendNANA
06:00 2.7 2.4 98 0.0 33 7   102.65     LegendNANA
07:00 3.2 2.9 98 0.0 35 9   102.62     LegendNANA
08:00 2.7 2.4 98 0.0 35 5   102.62     LegendNANA
09:00 3.0 2.7 98 0.0 35 7   102.60     LegendNANA
10:00 4.4 3.6 94 0.0 35 8   102.61     LegendNANA
11:00 5.5 3.8 89 0.0 35 6   102.57     LegendNANA
12:00 5.6 3.3 85 0.0 36 9   102.55     LegendNANA
13:00 5.9 3.2 83 0.0 36 10   102.48     LegendNANA
14:00 5.5 3.1 85 0.0 36 9   102.45     LegendNANA
15:00 5.7 2.9 82 0.0 36 7   102.42     LegendNANA
16:00 4.8 2.9 87 0.0 1 7   102.39     LegendNANA
17:00 4.0 3.0 93 0.0 1 7   102.37     LegendNANA
18:00 3.7 3.2 96 0.0 34 8   102.38     LegendNANA
19:00 3.6 3.2 97 0.0 36 9   102.37     LegendNANA
20:00 3.6 3.3 98 0.0 35 10   102.41     LegendNANA
21:00 3.6 3.2 98 0.0 36 9   102.39     LegendNANA
22:00 3.3 3.0 98 0.0 35 9   102.43     LegendNANA
23:00 3.2 2.9 98 0.0 36 8   102.39     LegendNANA

Notes on Data Quality.

Legend

  • E = Estimated
  • M = Missing
  • NA = Not Available*
  • [empty] = Indicates an unobserved value
Date modified: